Regional Weather Roundup
Issued by NWS Upton, NY

Current Version | Previous Version | Text Only | Print | Product List | Glossary On
Versions: 1 2 3 4 5 6 7 8 9 10 11 12 13 14 15 16 17 18 19 20 21 22 23 24 25 26 27 28 29 30 31 32 33 34 35 36 37 38 39 40 41 42 43 44 45 46 47 48 49 50
649 ASUS41 KOKX 201408 RWROKX REGIONAL WEATHER ROUNDUP NATIONAL WEATHER SERVICE NEW YORK NY 900 AM EST MON FEB 20 2017 NOTE: "FAIR" INDICATES FEW OR NO CLOUDS BELOW 12,000 FEET WITH NO SIGNIFICANT WEATHER AND/OR OBSTRUCTIONS TO VISIBILITY. NYZ071-072-176-178-NJZ106-104-201500- NEW YORK CITY METRO AREA CITY SKY/WX TMP DP RH WIND PRES REMARKS Central Park SUNNY 45 30 55 NW12 30.20R Wall St Helipt NOT AVBL LaGuardia APRT SUNNY 47 32 56 NW14 30.17R Kennedy INTL MOSUNNY 49 33 54 N12 30.18R Breezy Point N/A 45 N/A N/A NW9 N/A Newark/Liberty MOSUNNY 47 30 51 NW13 30.18R Teterboro SUNNY 47 32 56 NW9 30.18R $$ NYZ177-179-078>081-201500- LONG ISLAND NEW YORK CITY SKY/WX TMP DP RH WIND PRES REMARKS Jones Beach N/A 46 N/A N/A NW13 N/A Matinecock PT NOT AVBL Farmingdale SUNNY 47 32 56 NW7 30.16R MacArthur/ISP SUNNY 47 33 58 N9 30.15R Shirley SUNNY 47 32 56 NW13G22 30.16R Westhampton SUNNY 46 31 55 NW13G23 30.16R Southampton NOT AVBL Bridgehampton NOT AVBL East Hampton N/A 45 31 59 N10 30.13R Montauk N/A 43 35 73 N8 30.14R $$ NYZ052-065-067-201500- HUDSON VALLEY CITY SKY/WX TMP DP RH WIND PRES REMARKS White Plains SUNNY 44 31 60 NW8 30.15R Newburgh SUNNY 41 32 70 W9 30.18R Montgomery SUNNY 45 27 49 NW7 30.16R Poughkeepsie SUNNY 40 29 64 N6 30.18R Albany MOSUNNY 37 26 64 NW8 30.21R WCI 31 $$ NJZ001-105-106-008-010-013-015-019>022-104-201500- NEW JERSEY CITY SKY/WX TMP DP RH WIND PRES REMARKS Newark/Liberty MOSUNNY 47 30 51 NW13 30.18R Teterboro SUNNY 47 32 56 NW9 30.18R Caldwell SUNNY 46 30 53 N8 30.19R Somerville SUNNY 46 30 53 N8 30.20R Linden NOT AVBL Sussex SUNNY 43 29 57 NE7 30.19R Andover N/A 42 28 57 N12G17 30.20R Trenton SUNNY 48 32 53 N13 30.21R Millville SUNNY 51 36 56 N15G22 30.21R Atlantic City SUNNY 50 33 52 N14 30.19R Wrightstown SUNNY 49 33 54 NW15 30.18R Toms River SUNNY 49 33 54 NW12 30.20R Belmar SUNNY 48 32 53 NW12 30.19R $$ PAZ047>061-062-071-201500- EASTERN PENNSYLVANIA CITY SKY/WX TMP DP RH WIND PRES REMARKS Philadelphia SUNNY 50 32 50 N14 30.23R Allentown MOSUNNY 46 31 55 NW6 30.23R Scranton MOSUNNY 38 30 73 N16 30.23R WCI 29 $$ CTZ002-004>006-009-010-012-RIZ004-006-007-MAZ004-011-015-201500- SOUTHERN NEW ENGLAND IN CT CITY SKY/WX TMP DP RH WIND PRES REMARKS Bradley INTL MOSUNNY 40 30 67 NE7 30.15R Hartford MOSUNNY 43 29 57 N14 30.15R Danbury SUNNY 43 29 57 N5 30.17R Wtrbury/Oxford MOSUNNY 39 27 60 N12G17 30.14S WCI 32 Bridgeport SUNNY 46 30 53 NW13 30.15R Meriden SUNNY 44 28 53 N9G18 30.15R New Haven MOSUNNY 43 30 60 NW10 30.15R Chester N/A 43 30 61 N13G18 30.13R Groton SUNNY 44 31 60 N9 30.13R Wilimantic MOSUNNY 42 29 59 VRB6 30.14S IN RI CITY SKY/WX TMP DP RH WIND PRES REMARKS Providence MOSUNNY 42 27 55 N10 30.14R Block Island MOSUNNY 44 31 60 N9 30.13R Westerly MOSUNNY 45 28 51 N8 30.13S IN MA CITY SKY/WX TMP DP RH WIND PRES REMARKS Boston MOSUNNY 40 23 50 NW15G22 30.14R WCI 32 Worcester SUNNY 35 19 52 N9G18 30.11R WCI 28 Westfield MOSUNNY 38 26 62 NE10 30.14R WCI 31 Provincetown CLOUDY 39 28 64 N13 30.12R WCI 31 Nantucket SUNNY 44 32 62 N14 30.09R $$ ANZ330-335-338-340-345-350-353-355-201500- COASTAL MARINE OBSERVATIONS STATION/POSITION TIME SKY/WX TEMP WIND PRES VSBY WAVE AIR SEA DIR/SP/G HT/PER (UTC) (F) (DEG/KT/KT) (MB) (MI) (FT/S) NY HARB ENTRANCE 1250 44 42 310/ 12/ 14 1020.5 2/ 6 20 S FIRE ISLAND 1350 42 40 350/ 10/ 12 1020.8 2/ 7 GREAT SOUTH BAY NOT AVBL 23 SSW MONTAUK P 1250 44 43 1020.3 2/ 7 15 E BARNEGAT LI 1330 42 N/A 2/ 9 HUDSON CANYON 1250 51 1019.7 3/ 6 KINGS POINT 1336 42 37 1021.4 EXECUTION ROCKS NOT AVBL CENTRAL LI SOUND 1315 42 320/ 10/ 12 N/A 1/ 2 EASTERN LI SOUND NOT AVBL ROBBINS REEF 1336 45 320/ 11/ 13 1021.8 $$ >>>>>>>>>>>>>>>>>>>>>>>>>>>> KEY <<<<<<<<<<<<<<<<<<<<<<<<<<< > < > SKY/WX - Sky Condition/Present Weather < > TMP - Temperature in Fahrenheit < > DP - Dew Point in Fahrenheit < > RH - Relative Humidity in Percent < > WIND - Direction (from) and Speed in MPH < > PRES - Mean Sea Level Pressure (inches of Hg) < > WCI - Wind Chill Index < > VSB - VISIBILITY IN MILES < > HX - HEAT INDEX < > TC - TEMPERATURE IN CELSIUS < > VRB - VARIABLE WIND DIRECTION < > < >>>>>>>>>>>>>>>>>>>>>>>>>>>> KEY <<<<<<<<<<<<<<<<<<<<<<<<<<<

USA.gov is the U.S. government's official web portal to all federal, state and local government web resources and services.